Weather History for KPIB - November, 2013

Change the Weather History Date:

Friday, November 8, 2013

  Actual Average Record
Temperature  
Mean Temperature 50 °F -  
Max Temperature 62 °F 68 °F 82 °F (2005)
Min Temperature 37 °F 47 °F 30 °F (2007)
Degree Days  
Heating Degree Days 16    
Moisture  
Dew Point 35 °F    
Average Humidity 62    
Maximum Humidity 81    
Minimum Humidity 34    
Precipitation  
Precipitation 0.00 in - - ()
Sea Level Pressure  
Sea Level Pressure 30.29 in    
Wind  
Wind Speed 8 mph (NNE)    
Max Wind Speed 16 mph    
Max Gust Speed 22 mph    
Visibility 10 miles    
Events      
Averages and records for this station are not official NWS values.
T = Trace of Precipitation, MM = Missing Value Source: NWS Daily Summary

Daily Weather History Graph

Daily Weather History Graph

Search for Another Location

Airport or City:

Trip Planner

Search our weather history database for the weather conditions in past years. The results will help you decide how hot, cold, wet, or windy it might be!

Date:

Astronomy

Nov. 08, 2013 Rise Set
Actual Time 6:19 AM CST 5:02 PM CST
Civil Twilight 5:53 AM CST 5:28 PM CST
Nautical Twilight 5:24 AM CST 5:57 PM CST
Astronomical Twilight 4:56 AM CST 6:25 PM CST
Moon 11:14 AM CST (11/8) 10:22 PM CST (11/8)
Length of Visible Light 11h 34m
Length of Day
10h 43m
Waxing Crescent, 33% of the Moon is Illuminated
Nov 8
Waxing Crescent
Nov 9
First Quarter
Nov 17
Full
Nov 25
Last Quarter
Dec 2
New

Hourly Weather History & Observations

Time (CST) Temp. Windchill Dew Point Humidity Pressure Visibility Wind Dir Wind Speed Gust Speed Precip Events Conditions
12:15 AM 42.8 °F 37.5 °F 35.6 °F 76% 30.32 in 10.0 mi North 9.2 mph - N/A   Clear
12:35 AM 42.8 °F 38.0 °F 35.6 °F 76% 30.32 in 10.0 mi North 8.1 mph - N/A   Clear
12:55 AM 42.8 °F 37.5 °F 35.6 °F 76% 30.32 in 10.0 mi North 9.2 mph - N/A   Clear
1:15 AM 42.8 °F 37.5 °F 35.6 °F 76% 30.31 in 10.0 mi North 9.2 mph - N/A   Clear
1:35 AM 42.8 °F 37.0 °F 33.8 °F 70% 30.31 in 10.0 mi North 10.4 mph - N/A   Clear
1:55 AM 42.8 °F 37.5 °F 33.8 °F 70% 30.31 in 10.0 mi North 9.2 mph - N/A   Clear
2:15 AM 42.8 °F 37.5 °F 33.8 °F 70% 30.31 in 10.0 mi North 9.2 mph - N/A   Clear
2:35 AM 41.0 °F 36.4 °F 33.8 °F 76% 30.32 in 10.0 mi North 6.9 mph - N/A   Clear
2:55 AM 39.2 °F 33.6 °F 33.8 °F 81% 30.31 in 10.0 mi North 8.1 mph - N/A   Clear
3:15 AM 39.2 °F 33.6 °F 33.8 °F 81% 30.30 in 10.0 mi North 8.1 mph - N/A   Clear
3:35 AM 39.2 °F 34.2 °F 33.8 °F 81% 30.31 in 10.0 mi North 6.9 mph - N/A   Clear
3:55 AM 39.2 °F 33.6 °F 33.8 °F 81% 30.31 in 10.0 mi North 8.1 mph - N/A   Clear
4:15 AM 39.2 °F 33.6 °F 33.8 °F 81% 30.32 in 10.0 mi North 8.1 mph - N/A   Clear
4:35 AM 39.2 °F 33.6 °F 32.0 °F 75% 30.32 in 10.0 mi North 8.1 mph - N/A   Clear
4:55 AM 39.2 °F 33.0 °F 32.0 °F 75% 30.32 in 10.0 mi North 9.2 mph - N/A   Clear
5:15 AM 39.2 °F 33.6 °F 32.0 °F 75% 30.32 in 10.0 mi North 8.1 mph - N/A   Clear
5:35 AM 39.2 °F 33.6 °F 32.0 °F 75% 30.33 in 10.0 mi North 8.1 mph - N/A   Clear
5:55 AM 39.2 °F 34.2 °F 32.0 °F 75% 30.33 in 10.0 mi NNE 6.9 mph - N/A   Clear
6:15 AM 39.2 °F 34.2 °F 32.0 °F 75% 30.34 in 10.0 mi North 6.9 mph - N/A   Clear
6:35 AM 37.4 °F 32.1 °F 32.0 °F 81% 30.34 in 10.0 mi North 6.9 mph - N/A   Clear
6:55 AM 39.2 °F 35.0 °F 33.8 °F 81% 30.35 in 10.0 mi North 5.8 mph - N/A   Clear
7:15 AM 42.8 °F 38.0 °F 33.8 °F 70% 30.36 in 10.0 mi North 8.1 mph - N/A   Clear
7:35 AM 44.6 °F 39.7 °F 33.8 °F 66% 30.36 in 10.0 mi North 9.2 mph - N/A   Clear
7:55 AM 46.4 °F 41.5 °F 33.8 °F 62% 30.37 in 10.0 mi NNE 10.4 mph - N/A   Clear
8:15 AM 48.2 °F - 33.8 °F 58% 30.36 in 10.0 mi NNE 9.2 mph - N/A   Clear
8:35 AM 50.0 °F - 33.8 °F 54% 30.37 in 10.0 mi NNE 8.1 mph 18.4 mph N/A   Clear
8:55 AM 51.8 °F - 33.8 °F 50% 30.37 in 10.0 mi NE 11.5 mph - N/A   Clear
9:15 AM 53.6 °F - 33.8 °F 47% 30.36 in 10.0 mi ENE 10.4 mph - N/A   Clear
9:35 AM 53.6 °F - 33.8 °F 47% 30.36 in 10.0 mi ENE 12.7 mph - N/A   Clear
9:55 AM 55.4 °F - 33.8 °F 44% 30.36 in 10.0 mi ENE 13.8 mph 19.6 mph N/A   Clear
10:15 AM 55.4 °F - 33.8 °F 44% 30.36 in 10.0 mi ENE 16.1 mph 21.9 mph N/A   Clear
10:35 AM 55.4 °F - 33.8 °F 44% 30.36 in 10.0 mi ENE 11.5 mph 21.9 mph N/A   Clear
10:55 AM 57.2 °F - 33.8 °F 41% 30.35 in 10.0 mi ENE 15.0 mph 21.9 mph N/A   Clear
11:15 AM 57.2 °F - 33.8 °F 41% 30.34 in 10.0 mi NE 15.0 mph 18.4 mph N/A   Clear
11:35 AM 59.0 °F - 33.8 °F 39% 30.33 in 10.0 mi NE 9.2 mph - N/A   Clear
11:55 AM 60.8 °F - 35.6 °F 39% 30.32 in 10.0 mi NE 10.4 mph 16.1 mph N/A   Clear
12:15 PM 60.8 °F - 33.8 °F 36% 30.30 in 10.0 mi NE 11.5 mph - N/A   Clear
12:35 PM 60.8 °F - 33.8 °F 36% 30.29 in 10.0 mi NNE 13.8 mph - N/A   Clear
12:55 PM 62.6 °F - 33.8 °F 34% 30.28 in 10.0 mi NE 12.7 mph 18.4 mph N/A   Clear
1:15 PM 62.6 °F - 33.8 °F 34% 30.27 in 10.0 mi North 12.7 mph - N/A   Clear
1:35 PM 60.8 °F - 32.0 °F 34% 30.27 in 10.0 mi NE 9.2 mph - N/A   Clear
1:55 PM 62.6 °F - 33.8 °F 34% 30.26 in 10.0 mi NNE 11.5 mph - N/A   Clear
2:15 PM 62.6 °F - 33.8 °F 34% 30.26 in 10.0 mi NE 8.1 mph - N/A   Clear
2:35 PM 62.6 °F - 33.8 °F 34% 30.25 in 10.0 mi NE 6.9 mph - N/A   Clear
2:55 PM 62.6 °F - 33.8 °F 34% 30.25 in 10.0 mi NNE 6.9 mph - N/A   Clear
3:15 PM 62.6 °F - 33.8 °F 34% 30.25 in 10.0 mi NNE 8.1 mph - N/A   Clear
3:35 PM 60.8 °F - 32.0 °F 34% 30.25 in 10.0 mi NE 6.9 mph - N/A   Clear
3:55 PM 60.8 °F - 35.6 °F 39% 30.25 in 10.0 mi NNE 4.6 mph - N/A   Clear
4:15 PM 59.0 °F - 35.6 °F 42% 30.25 in 10.0 mi NNE 4.6 mph - N/A   Clear
4:35 PM 55.4 °F - 39.2 °F 54% 30.25 in 10.0 mi NNE 3.5 mph - N/A   Clear
4:55 PM 53.6 °F - 39.2 °F 58% 30.24 in 10.0 mi North 3.5 mph - N/A   Clear
5:15 PM 51.8 °F - 41.0 °F 67% 30.25 in 10.0 mi North 3.5 mph - N/A   Clear
5:35 PM 50.0 °F - 39.2 °F 66% 30.24 in 10.0 mi North - - N/A   Clear
5:55 PM 48.2 °F - 39.2 °F 71% 30.24 in 10.0 mi North 4.6 mph - N/A   Clear
6:15 PM 50.0 °F - 37.4 °F 62% 30.25 in 10.0 mi North 4.6 mph - N/A   Clear
6:35 PM 48.2 °F - 37.4 °F 66% 30.25 in 10.0 mi North 6.9 mph - N/A   Clear
6:55 PM 48.2 °F - 37.4 °F 66% 30.25 in 10.0 mi North 4.6 mph - N/A   Clear
7:15 PM 46.4 °F 45.2 °F 39.2 °F 76% 30.25 in 10.0 mi NNE 3.5 mph - N/A   Clear
7:35 PM 46.4 °F - 37.4 °F 71% 30.25 in 10.0 mi Calm Calm - N/A   Clear
7:55 PM 46.4 °F - 39.2 °F 76% 30.25 in 5.0 mi Calm Calm - N/A   Clear
8:15 PM 46.4 °F - 39.2 °F 76% 30.25 in 10.0 mi Calm Calm - N/A   Clear
8:35 PM 44.6 °F 43.1 °F 39.2 °F 81% 30.25 in 10.0 mi North 3.5 mph - N/A   Clear
8:55 PM 44.6 °F 43.1 °F 39.2 °F 81% 30.25 in 10.0 mi North 3.5 mph - N/A   Clear
9:15 PM 46.4 °F 45.2 °F 39.2 °F 76% 30.26 in 10.0 mi North 3.5 mph - N/A   Clear
9:35 PM 44.6 °F - 39.2 °F 81% 30.26 in 10.0 mi Calm Calm - N/A   Clear
9:55 PM 44.6 °F 41.4 °F 39.2 °F 81% 30.25 in 10.0 mi NNE 5.8 mph - N/A   Clear
10:15 PM 46.4 °F 45.2 °F 37.4 °F 71% 30.24 in 10.0 mi NE 3.5 mph - N/A   Clear
10:35 PM 46.4 °F 45.2 °F 39.2 °F 76% 30.24 in 10.0 mi NNE 3.5 mph - N/A   Clear
10:55 PM 44.6 °F 43.1 °F 39.2 °F 81% 30.24 in 10.0 mi NNE 3.5 mph - N/A   Clear
11:15 PM 44.6 °F 43.1 °F 39.2 °F 81% 30.24 in 10.0 mi NNE 3.5 mph - N/A   Clear
11:35 PM 44.6 °F 42.2 °F 39.2 °F 81% 30.23 in 10.0 mi NNE 4.6 mph - N/A   Clear
11:55 PM 46.4 °F 44.3 °F 37.4 °F 71% 30.22 in 10.0 mi NE 4.6 mph - N/A   Clear